Location: Newark
(5.8900°S, 42.6378°W)
Time: 03:27:09
(UTC+00:00)

deb Explorer IX - Pass Details

Date: 31 October 2019
Orbit: 546 x 1105 km, 38.8° (Epoch: 17 November)

Event Time Altitude Azimuth Distance (km) Brightness Sun altitude
Exits shadow 05:24:27 11° 135° (SE) 2,200 ? -43.3°
Drops below altitude 10° 05:24:56 10° 130° (SE) 2,236 ? -43.2°
Sets 05:28:53 0° 97° (E) 3,012 ? -42.3°
